Regional Weather Roundup
Issued by NWS

Home | Current Version | Previous Version | Text Only | Print | Product List | Glossary Off
Versions: 1 2 3 4 5 6 7 8 9 10 11 12 13 14 15 16 17 18 19 20 21 22 23 24 25 26 27 28 29 30 31 32 33 34 35 36 37 38 39 40 41 42 43 44 45 46 47 48 49 50

000
ASUS43 KOAX 100002
RWRNE

WEATHER ROUNDUP FOR NEBRASKA
NATIONAL WEATHER SERVICE OMAHA NE
700 PM CDT WED JUL 09 2014

NOTES: SATELLITE DATA IS BEING USED TO AUGMENT CLOUD COVER ABOVE
       12000 FEET.
       "FAIR" INDICATES FEW OR NO CLOUDS BELOW 12,000 FEET WITH NO
       SIGNIFICANT WEATHER AND/OR OBSTRUCTIONS TO VISIBILITY.

  * THESE STATIONS DO NOT REPORT WEATHER SUCH AS RAIN...SNOW OR FOG.

NEZ001>004-019>022-054>056-100100-
NEBRASKA PANHANDLE

CITY           SKY/WX    TMP DP  RH WIND       PRES   REMARKS
SCOTTSBLUFF    SUNNY     94  50  22 E9        29.90F HX  91
6HR MIN TEMP:  79; 6HR MAX TEMP:  95;

ALLIANCE       MOSUNNY   93  50  23 NE7       29.91F HX  90
6HR MIN TEMP:  83; 6HR MAX TEMP:  93;

CHADRON        SUNNY     85  62  46 E13       29.91F
6HR MIN TEMP:  82; 6HR MAX TEMP:  89;

KIMBALL        CLOUDY    74  57  54 SE7       29.96F
SIDNEY         MOSUNNY   85  56  37 S7        29.95F
6HR MIN TEMP:  84; 6HR MAX TEMP:  93;

$$

NEZ057>060-069>072-079>082-100100-
SOUTHWEST NEBRASKA

CITY           SKY/WX    TMP DP  RH WIND       PRES   REMARKS
NORTH PLATTE   TSTM      78  64  61 SE9       29.91R
6HR MIN TEMP:  78; 6HR MAX TEMP:  89; 6HR PCP:  0.05;

IMPERIAL       SUNNY     90  58  33 S16G23    29.90F
6HR MIN TEMP:  83; 6HR MAX TEMP:  93;

LEXINGTON      CLOUDY    84  60  42 S12       29.93S
MCCOOK         SUNNY     87  61  41 S20G28    29.90F
6HR MIN TEMP:  85; 6HR MAX TEMP:  90;

OGALLALA       SUNNY     89  58  34 S10       29.89F
$$

NEZ005>010-023>029-035>040-094-100100-
NORTH CENTRAL NEBRASKA

CITY           SKY/WX    TMP DP  RH WIND       PRES   REMARKS
VALENTINE      MOSUNNY   70  59  68 E14       29.99F
6HR MIN TEMP:  69; 6HR MAX TEMP:  74;

AINSWORTH      PTSUNNY   64  59  81 E14       29.99F
BROKEN BOW     MOSUNNY   75  63  66 E18G26    29.95F
6HR MIN TEMP:  72; 6HR MAX TEMP:  82;

O`NEILL        CLOUDY    64  59  83 E7        30.01F
ORD            TSTM      66  60  81 W9G20     29.97F
6HR MIN TEMP:  66; 6HR MAX TEMP:  75; 6HR PCP:  0.09;

THEDFORD       SUNNY     75  63  65 E23G29    29.96S
$$

NEZ041-046>049-061>064-073>077-083>087-100100-
SOUTH CENTRAL NEBRASKA

CITY           SKY/WX    TMP DP  RH WIND       PRES   REMARKS
GRAND ISLAND   LGT RAIN  70  62  76 SE21G43   29.93F
6HR MIN TEMP:  70; 6HR MAX TEMP:  82; 6HR PCP: TRACE;

AURORA         TSTM      67  64  89 SE18      29.97F
HASTINGS       PTSUNNY   78  62  57 E16       29.99R
6HR MIN TEMP:  78; 6HR MAX TEMP:  84;

HEBRON         MOSUNNY   84  59  42 SE6       29.96S
HOLDREGE       MOSUNNY   87  54  32 S16G23    29.93F
KEARNEY *      CLOUDY    73  61  64 E20G55    30.00R
YORK           LGT RAIN  64  64 100 SE15      30.02F
$$

NEZ011>018-030>034-042>045-100100-
NORTHEAST NEBRASKA

CITY           SKY/WX    TMP DP  RH WIND       PRES   REMARKS
NORFOLK        LGT RAIN  68  61  78 SE7       30.01F
6HR MIN TEMP:  68; 6HR MAX TEMP:  82; 6HR PCP:  0.02;

ALBION         TSTM      64  61  88 E8        30.01F
BLAIR          PTSUNNY   76  63  62 SW3       30.02F
FREMONT        CLOUDY    73  65  76 W5        30.02F
TEKAMAH        PTSUNNY   81  60  48 S8        29.99F
6HR MIN TEMP:  80; 6HR MAX TEMP:  84;

WAYNE          MOSUNNY   76  62  60 SW10      30.01F
$$

NEZ050>053-065>068-078-088>093-100100-
SOUTHEAST NEBRASKA

CITY           SKY/WX    TMP DP  RH WIND       PRES   REMARKS
LINCOLN        LGT RAIN  71  65  81 N6        30.04F
6HR MIN TEMP:  71; 6HR MAX TEMP:  86; 6HR PCP:  0.12;

OMAHA EPPLEY   CLOUDY    81  56  42 S7        30.00F
6HR MIN TEMP:  80; 6HR MAX TEMP:  85;

BEATRICE       CLOUDY    76  63  64 NE9       29.99F
FALLS CITY     PTSUNNY   79  63  57 E8        30.00F
6HR MIN TEMP:  79; 6HR MAX TEMP:  85;

NEBRASKA CITY  PTSUNNY   76  62  60 CALM      30.02S
PLATTSMOUTH    PTSUNNY   76  60  57 S5        30.02S
$$

NEZ044-045-051>053-067-100100-
OMAHA AREA

CITY           SKY/WX    TMP DP  RH WIND       PRES   REMARKS
OMAHA EPPLEY   CLOUDY    81  56  42 S7        30.00F
6HR MIN TEMP:  80; 6HR MAX TEMP:  85;

BLAIR          PTSUNNY   76  63  62 SW3       30.02F
FREMONT        CLOUDY    73  65  76 W5        30.02F
MILLARD        PTSUNNY   79  60  51 S5        30.01S
OFFUTT AFB     PTSUNNY   78  62  57 S7        30.00F
PLATTSMOUTH    PTSUNNY   76  60  57 S5        30.02S
WAHOO          LGT RAIN  71  65  79 W5        30.01F
$$



USA.gov is the U.S. government's official web portal to all federal, state and local government web resources and services.